Flag for U.S.A. Weather past 2 weeks in Glennallen, Alaska, U.S.A.

Now
61 °F

Sunny.


Feels Like: 61 °F
Forecast: 44 / 61 °F
Wind: 17 mph from South

Location: Gulkana Airport

Current Time: Jun 30, 2015 at 9:08:36 PM

Latest Report: Jun 30, 2015 at 7:53 PM


Visibility: 10 mi

Pressure: 30.09 "Hg

Humidity: 42%

Dew point: 38 °F

Location of GlennallenLocation

Historic Weather in Glennallen — Graph

°F

Glennallen temperature yesterday

Maximum temperature yesterday: 70 °F (at 3:53 PM)
Minimum temperature yesterday: 49 °F (at 3:53 AM)
Average temperature yesterday: 59 °F

Past Weeks' High & Low Weather Summary

 TemperatureHumidityPressure
High81 °F (Jun 17, 3:53 PM)93% (Jun 21, 1:53 AM)30.11 "Hg (Jun 21, 1:53 AM)
Low41 °F (Jun 17, 4:53 AM)17% (Jun 17, 6:53 PM)29.71 "Hg (Jun 24, 8:53 PM)
Average62 °F52%29.94 "Hg
* Reported Jun 15 7:53 PM — Jun 30 7:53 PM, Glennallen, Weather by CustomWeather, © 2015

Note: Actual official high and low records may vary slightly from our data, if they occured in-between our weather recording intervals... More about our weather records

Advertising

Glennallen weather history for previous 24 hours

 ConditionsComfort  
Time TempWeatherWind HumidityBarometerVisibility
7:53 PM
Tue, Jun 30
61 °FSunny.17 mph42%30.09 "Hg10 mi
6:53 PM63 °FSunny.21 mph34%30.08 "Hg10 mi
5:53 PM64 °FSunny.16 mph38%30.06 "Hg10 mi
4:53 PM67 °FSunny.16 mph33%30.06 "Hg10 mi
3:53 PM68 °FBroken clouds.20 mph35%30.06 "Hg10 mi
2:53 PM66 °FPartly sunny.20 mph36%30.06 "Hg10 mi
1:53 PM65 °FLight rain. Scattered clouds.7 mph42%30.06 "Hg10 mi
12:53 PM66 °FPassing clouds.10 mph39%30.07 "Hg10 mi
11:53 AM62 °FPassing clouds.12 mph43%30.09 "Hg10 mi
10:53 AM63 °FSunny.14 mph41%30.09 "Hg10 mi
9:53 AM58 °FMore clouds than sun.8 mph58%30.11 "Hg10 mi
8:53 AM56 °FPartly sunny.7 mph60%30.10 "Hg10 mi
7:53 AM53 °FSunny.6 mph64%30.10 "Hg10 mi
6:53 AM51 °FPartly sunny.7 mph69%30.09 "Hg10 mi
5:53 AM51 °FSunny.8 mph63%30.09 "Hg10 mi
4:53 AM51 °FPassing clouds.8 mph63%30.08 "Hg10 mi
3:53 AM51 °FClear.8 mph66%30.07 "Hg10 mi
2:53 AM53 °FPassing clouds.6 mph59%30.07 "Hg10 mi
1:53 AM54 °FClear.8 mph57%30.05 "Hg10 mi
12:53 AM56 °FPassing clouds.8 mph53%30.04 "Hg10 mi
11:53 PM
Mon, Jun 29
57 °FPartly sunny.10 mph51%30.03 "Hg10 mi
10:53 PM59 °FOvercast.13 mph46%30.01 "Hg10 mi
9:53 PM61 °FSunny.10 mph41%29.98 "Hg10 mi
Weather by CustomWeather, © 2015

See weather overviewHow to use our weather pages